Location: Hamilton Branch State Park
(33.7552°N, 82.2209°W)
Time: 14:56:45
(UTC-04:00)

ISS - Visible Passes

Search period start: 17 September 2019 00:00
Search period end: 27 September 2019 00:00
Orbit: 411 x 421 km, 51.6° (Epoch: 18 September)

Date Brightness Start Highest point End Pass type
(mag) Time Alt. Az. Time Alt. Az. Time Alt. Az.
17 Sep -2.1 05:47:25 22° S 05:47:25 22° S 05:48:59 10° SSE visible
17 Sep -3.6 20:45:48 10° SSW 20:48:58 45° SE 20:49:14 44° ESE visible
18 Sep -2.5 19:57:55 10° S 20:00:36 23° SE 20:03:19 10° ENE visible
18 Sep -1.6 21:34:24 10° W 21:36:46 25° NW 21:36:46 25° NW visible
19 Sep -2.8 20:45:29 10° WSW 20:48:41 47° NW 20:51:03 16° NNE visible
20 Sep -3.8 19:56:52 10° SW 20:00:11 86° SE 20:03:31 10° NE visible
20 Sep -0.7 21:36:00 10° NW 21:37:19 12° NNW 21:38:01 11° NNW visible
21 Sep -1.1 20:46:14 10° WNW 20:48:35 18° NNW 20:50:57 10° NNE visible
22 Sep -1.8 19:57:00 10° W 19:59:56 28° NW 20:02:52 10° NNE visible
24 Sep -0.9 19:58:21 10° WNW 19:59:53 13° NNW 20:01:26 10° N visible
